Flag for China Weather past 2 weeks in Suzhou, Jiangsu, China

Now
68 °F

Passing clouds.


Feels Like: 68 °F
Forecast: 65 / 79 °F
Wind: 8 mph from East

Location: Shanghai Hongqiao Airport

Current Time: May 23, 2015 at 4:49:05 AM

Latest Report: May 23, 2015 at 4:00 AM


Visibility: N/A

Pressure: 29.80 "Hg

Humidity: 83%

Dew point: 63 °F

Location of SuzhouLocation

Historic Weather in Suzhou — Graph

°F

Suzhou temperature yesterday

Maximum temperature yesterday: 79 °F (at 12:30 PM)
Minimum temperature yesterday: 61 °F (at 2:30 AM)
Average temperature yesterday: 69 °F

Past Weeks' High & Low Weather Summary

 TemperatureHumidityPressure
High84 °F (May 13, 11:30 AM)100% (May 15, 1:30 PM)30.07 "Hg (May 15, 1:30 PM)
Low55 °F (May 12, 2:00 AM)24% (May 12, 5:30 PM)29.59 "Hg (May 18, 3:30 AM)
Average70 °F69%29.82 "Hg
* Reported May 8 3:00 AM — May 23 3:30 AM, Suzhou, Weather by CustomWeather, © 2015

Note: Actual official high and low records may vary slightly from our data, if they occured in-between our weather recording intervals... More about our weather records

Advertising

Suzhou weather history for previous 24 hours

 ConditionsComfort  
Time TempWeatherWind HumidityBarometerVisibility
3:30 AM
Sat, May 23
68 °FPassing clouds.10 mph83%29.80 "HgN/A
3:00 AM68 °FPassing clouds.8 mph83%29.80 "HgN/A
2:30 AM68 °FPassing clouds.8 mph83%29.80 "HgN/A
2:00 AM68 °FPassing clouds.8 mph78%29.80 "HgN/A
1:30 AM68 °FPassing clouds.8 mph78%29.83 "HgN/A
1:00 AM68 °FPassing clouds.8 mph78%29.83 "HgN/A
12:30 AM68 °FClear.6 mph73%29.83 "Hg10 mi
12:00 AM68 °FPassing clouds.10 mph73%29.83 "HgN/A
11:30 PM
Fri, May 22
68 °FPassing clouds.8 mph73%29.83 "HgN/A
11:00 PM68 °FClear.8 mph73%29.86 "Hg10 mi
10:30 PM68 °FClear.8 mph73%29.86 "Hg10 mi
10:00 PM68 °FClear.8 mph73%29.86 "Hg10 mi
9:30 PM68 °FPassing clouds.10 mph73%29.86 "HgN/A
9:00 PM68 °FPassing clouds.10 mph73%29.86 "HgN/A
8:30 PM68 °FClear.10 mph73%29.83 "Hg10 mi
8:00 PM68 °FClear.10 mph73%29.83 "Hg10 mi
7:30 PM70 °FClear.10 mph73%29.83 "Hg10 mi
7:00 PM70 °FClear.10 mph69%29.83 "Hg10 mi
6:30 PM72 °FSunny.13 mph65%29.83 "Hg10 mi
6:00 PM72 °FSunny.13 mph65%29.80 "Hg10 mi
5:30 PM73 °FSunny.13 mph61%29.80 "Hg10 mi
5:00 PM75 °FSunny.13 mph54%29.80 "Hg10 mi
4:30 PM75 °FSunny.10 mph50%29.80 "Hg10 mi
4:00 PM75 °FPassing clouds.10 mph47%29.83 "HgN/A
3:30 PM77 °FSunny.13 mph44%29.83 "Hg10 mi
3:00 PM77 °FPassing clouds.10 mph44%29.83 "HgN/A
2:30 PM77 °FPassing clouds.13 mph42%29.83 "HgN/A
2:00 PM79 °FPassing clouds.10 mph42%29.86 "HgN/A
1:30 PM77 °FPassing clouds.10 mph44%29.86 "HgN/A
1:00 PM77 °FPassing clouds.13 mph42%29.86 "HgN/A
12:30 PM79 °FPassing clouds.13 mph42%29.86 "HgN/A
12:00 PM77 °FPassing clouds.10 mph44%29.89 "HgN/A
11:30 AM77 °FPassing clouds.10 mph44%29.89 "HgN/A
11:00 AM75 °FPassing clouds.10 mph50%29.92 "HgN/A
10:30 AM75 °FPassing clouds.10 mph50%29.92 "HgN/A
10:00 AM75 °FPassing clouds.8 mph50%29.95 "HgN/A
9:30 AM72 °FPassing clouds.10 mph57%29.95 "HgN/A
9:00 AM72 °FPassing clouds.8 mph61%29.95 "HgN/A
8:30 AM72 °FPassing clouds.8 mph65%29.95 "HgN/A
8:00 AM68 °FPassing clouds.8 mph69%29.95 "HgN/A
7:30 AM66 °FSunny.10 mph73%29.95 "Hg10 mi
7:00 AM66 °FPassing clouds.8 mph73%29.92 "HgN/A
6:30 AM64 °FPassing clouds.8 mph78%29.92 "HgN/A
6:00 AM63 °FSunny.6 mph83%29.92 "Hg10 mi
5:30 AM61 °FSunny.6 mph83%29.92 "Hg10 mi
5:00 AM61 °FSunny.6 mph83%29.92 "Hg10 mi
4:30 AM61 °FClear.6 mph83%29.92 "Hg10 mi
4:00 AM61 °FClear.6 mph83%29.92 "Hg10 mi
Weather by CustomWeather, © 2015

See weather overviewHow to use our weather pages